Regional Weather Roundup
Issued by NWS Bismarck, ND

Home | Current Version | Previous Version | Text Only | Print | Product List | Glossary On
Versions: 1 2 3 4 5 6 7 8 9 10 11 12 13 14 15 16 17 18 19 20 21 22 23 24 25 26 27 28 29 30 31 32 33 34 35 36 37 38 39 40 41 42 43 44 45 46 47 48 49 50
000
ASUS43 KBIS 291102
RWRBIS

NWR BROADCAST TEXT
NATIONAL WEATHER SERVICE BISMARCK ND
600 AM CDT THU SEP 29 2016

NOTE: "FAIR" INDICATES FEW OR NO CLOUDS BELOW 12,000 FEET WITH NO
SIGNIFICANT WEATHER AND/OR OBSTRUCTIONS TO VISIBILITY.


CITY           SKY/WX    TMP DP  RH WIND       PRES   REMARKS
WILLISTON      CLEAR     53  40  61 SE8       30.27S
MINOT          CLEAR     43  42  97 SE7       30.35R
MINOT AFB      NOT AVBL
BISMARCK       CLEAR     44  42  93 SE6       30.39S
DICKINSON      CLEAR     45  41  86 S17       30.28F
GARRISON         N/A     46  45  96 SE7       30.35S
HETTINGER ARPT CLEAR     44  40  85 SE7       30.34R
JAMESTOWN      FOG       38  37  97 SE5       30.42S VSB 1/2
BEACH          FAIR      50  37  62 SE15      30.28F
CARRINGTON     FAIR      41  41 100 SE8       30.44S
HAZEN          FAIR      41  39  93 E5        30.38R
RUGBY          FAIR      45  45 100 SE7       30.40S
STANLEY        FAIR      45  45 100 SE7       30.34S
$$

CITY           SKY/WX    TMP DP  RH WIND       PRES   REMARKS
GRAND FORKS    CLOUDY    46  43  89 SE3       30.46R
GRAND FORKS AF NOT AVBL
DEVILS LAKE    CLEAR     48  46  93 SE7       30.43S
FARGO          CLOUDY    47  45  93 CALM      30.46R
CANDO          FAIR      39  39 100 SE7       30.44S
CAVALIER       FOG       39  39 100 CALM      30.46R VSB 1/2
GRAFTON        FAIR      43  43 100 SE5       30.48R
GWINNER          N/A     39  39 100 CALM      30.45R VSB 1/4
LANGDON        FAIR      43  43 100 SE8       30.44S
ROLLA          FAIR      43  43 100 S6        30.42S
WALHALLA       FAIR      37  37 100 CALM      30.45S
$$

CITY           SKY/WX    TMP DP  RH WIND       PRES   REMARKS
ABERDEEN       CLOUDY    36  34  92 CALM      30.44R
MOBRIDGE       CLEAR     45  41  86 SE8       30.37R
BUFFALO          N/A     49  41  74 SE10      30.23S
RAPID CITY     CLEAR     41  34  76 SE7       30.32S
GLASGOW        CLEAR     55  47  74 SE14      30.12S
SIDNEY         CLEAR     49  39  68 S6        30.25S
WOLF POINT     CLEAR     53  44  71 E8        30.18S
GLENDIVE       CLEAR     54  37  52 SE8       30.23F
MILES CITY     CLEAR     59  42  53 SE13G22   30.17F
BAKER          CLEAR     50  35  56 SE12      30.27R
$$

CITY           SKY/WX    TMP DP  RH WIND       PRES   REMARKS
BILLINGS       CLEAR     53  48  83 SW8       30.14F
GREAT FALLS    CLEAR     44  41  89 W5        30.11F
$$





USA.gov is the U.S. government's official web portal to all federal, state and local government web resources and services.